This demonstration page uses our WeatherBlox Daily Observations layout. Learn more.

Left ArrowRight Arrow

Hourly Observations for September 9, 2020

Temp ( °F °C ) Dew Point ( °F °C ) Humidity (%) Winds ( mph kmh ) Pressure ( in mb ) Visibility ( mi km ) Precip ( " mm )
12:15 am 00:15 Cloudy with Nearby Thunderstorms 40 4.3 34 1 79 79 N 7 11 30.45 1031 10 16 0.00 0.00
12:35 am 00:35 Cloudy with Rain 40 4.2 34 1.3 82 82 N 6 9 30.46 1031 7 11 0.03 0.76
12:55 am 00:55 Cloudy with Light Rain 39 3.7 35 1.9 88 88 NNE 12 19 30.42 1030 10 16 0.06 1.52
1:15 am 01:15 Cloudy with Light Rain 38 3.6 36 2 89 89 NNE 8 13 30.42 1030 10 16 0.01 0.25
1:35 am 01:35 Cloudy with Light Rain 39 3.7 36 2 89 89 N 7 11 30.43 1031 10 16 0.01 0.25
1:55 am 01:55 Cloudy 39 3.7 36 2 89 89 N 6 9 30.45 1031 10 16 0.02 0.51
2:15 am 02:15 Cloudy with Drizzle 39 3.7 36 2.3 91 91 N 8 13 30.45 1031 10 16 0.00 0.00
2:35 am 02:35 Mostly Cloudy with Light Rain 39 3.7 36 2.2 90 90 N 10 17 30.43 1031 10 16 0.00 0.00
2:55 am 02:55 Cloudy with Rain 38 3.5 36 2.2 91 91 N 8 13 30.42 1030 10 16 0.02 0.51
3:15 am 03:15 Cloudy with Light Rain 38 3.5 36 2 90 90 N 13 20 30.44 1031 10 16 0.01 0.25
3:35 am 03:35 Cloudy 38 3.5 36 2.1 91 91 N 12 19 30.43 1031 10 16 0.01 0.25
3:55 am 03:55 Cloudy 38 3.6 36 2.4 92 92 N 7 11 30.44 1031 10 16 0.01 0.25
4:15 am 04:15 Cloudy with Rain 39 3.7 37 2.5 92 92 N 9 15 30.44 1031 10 16 0.01 0.25
4:35 am 04:35 Cloudy with Drizzle 39 3.7 37 2.5 92 92 N 8 13 30.43 1031 10 16 0.01 0.25
4:55 am 04:55 Cloudy 39 3.9 37 2.5 91 91 N 7 11 30.46 1031 10 16 0.01 0.25
5:15 am 05:15 Cloudy with Rain 39 4 37 2.7 91 91 N 7 11 30.45 1031 10 16 0.00 0.00
5:35 am 05:35 Cloudy with Drizzle 39 4 37 2.6 91 91 N 7 11 30.45 1031 10 16 0.00 0.00
5:55 am 05:55 Cloudy with Drizzle 39 3.9 37 2.6 91 91 N 8 13 30.44 1031 10 16 0.00 0.00
6:15 am 06:15 Cloudy with Drizzle 39 3.8 37 2.5 91 91 N 9 15 30.43 1030 10 16 0.00 0.00
6:35 am 06:35 Cloudy with Light Rain 39 3.7 36 2.4 91 91 N 9 15 30.43 1031 10 16 0.01 0.25
6:55 am 06:55 Cloudy with Light Rain 38 3.6 37 2.5 93 93 N 10 17 30.43 1031 10 16 0.03 0.76
7:15 am 07:15 Cloudy with Drizzle 38 3.5 36 2.4 93 93 N 12 19 30.42 1030 10 16 0.00 0.00
7:35 am 07:35 Cloudy with Light Rain 38 3.6 36 2.3 91 91 N 10 17 30.43 1031 10 16 0.00 0.00
7:55 am 07:55 Cloudy 38 3.6 36 2.3 91 91 N 12 19 30.43 1031 10 16 0.00 0.00
8:15 am 08:15 Cloudy 39 3.7 37 2.5 92 92 N 12 19 30.41 1030 10 16 0.00 0.00
8:35 am 08:35 Cloudy 39 4 37 2.5 90 90 N 12 19 30.43 1030 10 16 0.00 0.00
8:55 am 08:55 Cloudy 39 4.1 37 2.5 89 89 N 8 13 30.46 1031 10 16 0.00 0.00
9:15 am 09:15 Cloudy 40 4.2 37 2.6 89 89 N 12 19 30.45 1031 10 16 0.00 0.00
9:35 am 09:35 Cloudy 40 4.5 37 2.6 88 88 NNE 12 19 30.44 1031 10 16 0.00 0.00
9:55 am 09:55 Cloudy 41 4.9 37 2.7 86 86 NNE 15 24 30.45 1031 10 16 0.00 0.00
10:15 am 10:15 Cloudy 41 5.1 37 2.8 85 85 NNE 12 19 30.46 1031 10 16 0.00 0.00
10:35 am 10:35 Cloudy 42 5.4 37 2.9 84 84 N 10 17 30.46 1032 10 16 0.00 0.00
10:55 am 10:55 Cloudy with Drizzle 42 5.3 37 2.6 83 83 NNE 14 22 30.46 1031 10 16 0.00 0.00
11:15 am 11:15 Cloudy with Light Rain 42 5.5 37 3 84 84 NNE 14 22 30.45 1031 10 16 0.00 0.00
11:35 am 11:35 Cloudy with Light Rain 42 5.5 38 3.1 85 85 N 13 20 30.47 1032 10 16 0.01 0.25
11:55 am 11:55 Cloudy 42 5.7 38 3.2 84 84 NNE 13 20 30.46 1032 10 16 0.01 0.25
12:15 pm 12:15 Cloudy with Light Rain 43 6 38 3.2 82 82 NNE 12 19 30.46 1031 10 16 0.00 0.00
12:35 pm 12:35 Cloudy with Drizzle 43 6.2 38 3.6 84 84 N 13 20 30.47 1032 10 16 0.00 0.00
12:55 pm 12:55 Cloudy with Light Rain 44 6.5 39 3.7 83 83 N 14 22 30.45 1031 10 16 0.00 0.00
1:15 pm 13:15 Cloudy 44 6.9 39 4 82 82 N 13 20 30.45 1031 10 16 0.00 0.00
1:35 pm 13:35 Cloudy 45 7 39 3.9 81 81 N 12 19 30.44 1031 10 16 0.00 0.00
1:55 pm 13:55 Cloudy 45 7.4 39 3.9 79 79 N 12 19 30.44 1031 10 16 0.00 0.00
2:15 pm 14:15 Cloudy 45 7.3 38 3.5 77 77 N 13 20 30.44 1031 10 16 0.00 0.00
2:35 pm 14:35 Cloudy 45 7.3 38 3.3 76 76 N 9 15 30.44 1031 10 16 0.00 0.00
2:55 pm 14:55 Cloudy 45 7.2 38 3.5 78 78 N 10 17 30.44 1031 10 16 0.00 0.00
3:15 pm 15:15 Cloudy 45 7.2 38 3.6 78 78 N 10 17 30.43 1030 10 16 0.00 0.00
3:35 pm 15:35 Cloudy with Light Rain 45 7.1 38 3.6 79 79 NNE 13 20 30.43 1030 10 16 0.00 0.00
3:55 pm 15:55 Cloudy 45 7 39 3.7 80 80 N 9 15 30.43 1030 10 16 0.00 0.00
4:15 pm 16:15 Cloudy 45 7.1 38 3.6 79 79 N 9 15 30.43 1030 10 16 0.00 0.00
4:35 pm 16:35 Cloudy 45 7.2 38 3.4 77 77 N 9 15 30.43 1030 10 16 0.00 0.00
4:55 pm 16:55 Cloudy 45 7.3 38 3.3 76 76 NNE 8 13 30.43 1030 10 16 0.00 0.00
5:15 pm 17:15 Cloudy 46 7.7 38 3.5 75 75 NNE 10 17 30.41 1030 10 16 0.00 0.00
5:35 pm 17:35 Cloudy 46 7.7 38 3.4 74 74 N 10 17 30.41 1030 10 16 0.00 0.00
5:55 pm 17:55 Cloudy 46 7.6 38 3.6 76 76 N 10 17 30.42 1030 10 16 0.00 0.00
6:15 pm 18:15 Cloudy 46 7.5 38 3.6 77 77 N 8 13 30.42 1030 10 16 0.00 0.00
6:35 pm 18:35 Cloudy with Rain 46 7.5 38 3.6 77 77 N 7 11 30.42 1030 10 16 0.00 0.00
6:55 pm 18:55 Cloudy 46 7.5 39 3.7 77 77 N 8 13 30.42 1030 10 16 0.00 0.00
7:15 pm 19:15 Cloudy 46 7.5 39 4 79 79 N 7 11 30.42 1030 10 16 0.00 0.00
7:35 pm 19:35 Cloudy 45 7.3 39 3.7 78 78 N 8 13 30.43 1030 10 16 0.00 0.00
7:55 pm 19:55 Cloudy 45 7.3 39 3.7 78 78 N 8 13 30.42 1030 10 16 0.00 0.00
8:15 pm 20:15 Cloudy 45 7.2 40 4.3 82 82 N 3 6 30.44 1031 10 16 0.00 0.00
8:35 pm 20:35 Cloudy 45 7.1 39 4.1 81 81 N 5 7 30.43 1030 10 16 0.00 0.00
8:55 pm 20:55 Cloudy 45 7.1 40 4.2 82 82 N 5 7 30.44 1031 10 16 0.00 0.00
9:15 pm 21:15 Cloudy 45 7.1 40 4.2 82 82 N 3 6 30.45 1031 10 16 0.00 0.00
9:35 pm 21:35 Cloudy 45 7.1 40 4.5 84 84 N 3 6 30.45 1031 10 16 0.00 0.00
9:55 pm 21:55 Cloudy 45 7.2 40 4.4 83 83 N 3 6 30.45 1031 10 16 0.00 0.00
10:15 pm 22:15 Cloudy 45 7.2 40 4.4 83 83 N 3 6 30.45 1031 10 16 0.00 0.00
10:35 pm 22:35 Cloudy 45 7.2 40 4.6 84 84 N 3 6 30.45 1031 10 16 0.00 0.00
10:55 pm 22:55 Cloudy 45 7.2 40 4.7 84 84 Calm 30.46 1031 10 16 0.00 0.00
11:15 pm 23:15 Cloudy 45 7.2 41 4.9 85 85 Calm 30.46 1031 10 16 0.00 0.00
11:35 pm 23:35 Cloudy 45 7.3 40 4.7 84 84 NW 3 6 30.47 1032 10 16 0.00 0.00
11:55 pm 23:55 Cloudy 45 7.2 41 5.1 87 87 NNW 3 6 30.46 1031 10 16 0.00 0.00

Powered by AerisWeather